Home > Weather > Worcester > Past weeks

Flag for U.S.A. Weather for the Past 2 Weeks in Worcester, Massachusetts, U.S.A.

Now
6 °F

Sunny.


Feels Like: -12 °F
Forecast: 6 / 22 °F
Wind: 15 mph from West

Location: Worcester Regional Airport

Current Time: Feb 12, 2016 at 9:56:13 AM

Latest Report: Feb 12, 2016 at 8:54 AM


Visibility: 10 mi

Pressure: 30.16 "Hg

Humidity: 63%

Dew point: -4 °F

Location of WorcesterLocation

Historic Weather in Worcester — Graph

°F

Worcester Temperature Yesterday

Maximum temperature yesterday: 22 °F (at 12:54 AM)
Minimum temperature yesterday: 5 °F (at 11:54 PM)
Average temperature yesterday: 16 °F

High & Low Weather Summary for the Past Weeks

 TemperatureHumidityPressure
High57 °F (Feb 1, 10:54 AM)96% (Jan 28, 11:54 PM)30.38 "Hg (Jan 28, 11:54 PM)
Low-2 °F (Feb 12, 6:54 AM)34% (Feb 2, 3:54 PM)29.37 "Hg (Jan 29, 12:54 PM)
Average31 °F69%29.89 "Hg
* Reported Jan 28 8:54 AM — Feb 12 8:54 AM, Worcester, Weather by CustomWeather, © 2016

Note: Actual official high and low records may vary slightly from our data, if they occured in-between our weather recording intervals... More about our weather records

Advertising

Worcester Weather History for the Previous 24 Hours

 ConditionsComfort  
Time TempWeatherWind HumidityBarometerVisibility
8:54 AM
Fri, Feb 12
6 °FSunny.15 mph63%30.16 "Hg10 mi
7:54 AM2 °FSunny.12 mph65%30.17 "Hg10 mi
6:54 AM-2 °FSunny.8 mphN/A30.16 "Hg10 mi
5:54 AM1 °FClear.10 mphN/A30.13 "Hg10 mi
4:54 AM0 °FClear.8 mphN/A30.13 "Hg10 mi
3:54 AM1 °FClear.9 mphN/A30.12 "Hg10 mi
2:54 AM2 °FClear.14 mphN/A30.10 "Hg10 mi
1:54 AM3 °FClear.15 mphN/A30.08 "Hg10 mi
12:54 AM3 °FClear.14 mphN/A30.06 "Hg10 mi
11:54 PM
Thu, Feb 11
5 °FClear.15 mph54%30.03 "Hg10 mi
10:54 PM6 °FClear.20 mph54%30.00 "Hg10 mi
9:54 PM7 °FClear.16 mph55%29.97 "Hg10 mi
8:54 PM8 °FClear.23 mph54%29.95 "Hg10 mi
7:54 PM9 °FPassing clouds.24 mph55%29.93 "Hg10 mi
6:54 PM9 °FClear.22 mph50%29.90 "Hg10 mi
5:54 PM11 °FPassing clouds.23 mph48%29.87 "Hg9 mi
4:01 PM16 °FLight snow. Scattered clouds.18 mph51%29.74 "Hg9 mi
3:01 PM17 °FLight snow. Partly sunny.20 mph47%29.70 "Hg9 mi
1:54 PM18 °FMostly cloudy.16 mph41%29.72 "Hg10 mi
12:54 PM18 °FMostly cloudy.14 mph52%29.73 "Hg10 mi
11:54 AM19 °FLight snow. Partly sunny.21 mph57%29.73 "Hg10 mi
11:02 AM20 °FPartly sunny.20 mph57%29.69 "Hg10 mi
9:54 AM19 °FLight snow. Mostly cloudy.20 mph68%29.71 "Hg5 mi
9:04 AM19 °FLight snow. Mostly cloudy.14 mph74%29.66 "Hg3 mi
Weather by CustomWeather, © 2016

See weather overviewHow to use our weather pages